Weather History for KJDD - April, 2013

Change the Weather History Date:

Sunday, April 7, 2013

  Actual Average (KTYR) Record (KTYR)
Temperature  
Mean Temperature 66 °F 62 °F  
Max Temperature 73 °F 72 °F 91 °F (1948)
Min Temperature 60 °F 52 °F 31 °F (2009)
Degree Days  
Heating Degree Days 0 5  
Month to date heating degree days 38  
Since 1 July heating degree days 2203  
Cooling Degree Days 2 2  
Month to date cooling degree days 9  
Year to date cooling degree days 42  
Growing Degree Days 16 (Base 50)    
Moisture  
Dew Point 59 °F    
Average Humidity 76    
Maximum Humidity 94    
Minimum Humidity 60    
Precipitation  
Precipitation 0.00 in 0.10 in 2.55 in (1942)
Month to date precipitation 0.71  
Year to date precipitation 11.70  
Snow  
Snow 0.00 in - - ()
Month to date snowfall  
Since 1 July snowfall  
Snow Depth -    
Sea Level Pressure  
Sea Level Pressure 29.90 in    
Wind  
Wind Speed 7 mph (SSE)    
Max Wind Speed 13 mph    
Max Gust Speed 21 mph    
Visibility 10 miles    
Events      
T = Trace of Precipitation, MM = Missing Value Source: NWS Daily Summary

Daily Weather History Graph

Daily Weather History Graph

Search for Another Location

Airport or City:

Trip Planner

Search our weather history database for the weather conditions in past years. The results will help you decide how hot, cold, wet, or windy it might be!

Date:

Astronomy

Apr. 07, 2013 Rise Set
Actual Time 7:01 AM CDT 7:46 PM CDT
Civil Twilight 6:36 AM CDT 8:11 PM CDT
Nautical Twilight 6:07 AM CDT 8:41 PM CDT
Astronomical Twilight 5:37 AM CDT 9:11 PM CDT
Moon 5:11 AM CDT (4/7) 5:26 PM CDT (4/7)
Length of Visible Light 13h 34m
Length of Day
12h 44m
Waning Crescent, 8% of the Moon is Illuminated
Apr 7
Waning Crescent
Apr 10
New
Apr 18
First Quarter
Apr 25
Full
May 2
Last Quarter

Hourly Weather History & Observations

Time (CDT) Temp. Dew Point Humidity Pressure Visibility Wind Dir Wind Speed Gust Speed Precip Events Conditions
12:15 AM 66.2 °F 55.4 °F 68% 29.93 in 10.0 mi SSE 8.1 mph - N/A   Clear
12:35 AM 64.4 °F 55.4 °F 73% 29.93 in 10.0 mi SSE 6.9 mph - N/A   Clear
12:55 AM 64.4 °F 57.2 °F 77% 29.93 in 10.0 mi SSE 5.8 mph - N/A   Clear
1:15 AM 64.4 °F 57.2 °F 77% 29.94 in 10.0 mi SSE 6.9 mph - N/A   Clear
1:35 AM 64.4 °F 57.2 °F 77% 29.94 in 10.0 mi South 4.6 mph - N/A   Clear
1:55 AM 62.6 °F 57.2 °F 82% 29.94 in 10.0 mi South 5.8 mph - N/A   Clear
2:15 AM 62.6 °F 57.2 °F 82% 29.93 in 10.0 mi SSE 8.1 mph - N/A   Clear
2:35 AM 62.6 °F 57.2 °F 82% 29.93 in 10.0 mi South 8.1 mph - N/A   Clear
2:55 AM 62.6 °F 57.2 °F 82% 29.93 in 10.0 mi SSE 6.9 mph - N/A   Clear
3:15 AM 62.6 °F 57.2 °F 82% 29.92 in 10.0 mi South 6.9 mph - N/A   Clear
3:35 AM 60.8 °F 57.2 °F 88% 29.93 in 10.0 mi South 4.6 mph - N/A   Clear
3:55 AM 60.8 °F 57.2 °F 88% 29.93 in 10.0 mi SSE 5.8 mph - N/A   Clear
4:15 AM 60.8 °F 57.2 °F 88% 29.93 in 10.0 mi SSE 6.9 mph - N/A   Clear
4:35 AM 60.8 °F 57.2 °F 88% 29.93 in 10.0 mi SSE 5.8 mph - N/A   Clear
4:55 AM 60.8 °F 57.2 °F 88% 29.93 in 10.0 mi SSE 4.6 mph - N/A   Scattered Clouds
5:15 AM 60.8 °F 57.2 °F 88% 29.93 in 10.0 mi SSE 4.6 mph - N/A   Partly Cloudy
5:35 AM 60.8 °F 57.2 °F 88% 29.94 in 10.0 mi SSE 5.8 mph - N/A   Mostly Cloudy
5:55 AM 60.8 °F 57.2 °F 88% 29.94 in 10.0 mi SSE 5.8 mph - N/A   Overcast
6:15 AM 60.8 °F 57.2 °F 88% 29.94 in 10.0 mi SE 4.6 mph - N/A   Overcast
6:35 AM 60.8 °F 57.2 °F 88% 29.95 in 10.0 mi SE 4.6 mph - N/A   Overcast
6:55 AM 60.8 °F 59.0 °F 94% 29.95 in 10.0 mi SE 4.6 mph - N/A   Overcast
7:15 AM 60.8 °F 57.2 °F 88% 29.95 in 10.0 mi SE 4.6 mph - N/A   Overcast
7:35 AM 60.8 °F 59.0 °F 94% 29.96 in 10.0 mi SE 6.9 mph - N/A   Overcast
7:55 AM 62.6 °F 59.0 °F 88% 29.96 in 10.0 mi SSE 9.2 mph - N/A   Overcast
8:15 AM 62.6 °F 59.0 °F 88% 29.96 in 10.0 mi SSE 4.6 mph - N/A   Overcast
8:35 AM 62.6 °F 59.0 °F 88% 29.96 in 10.0 mi SSE 5.8 mph - N/A   Overcast
8:55 AM 62.6 °F 59.0 °F 88% 29.97 in 10.0 mi SSE 5.8 mph - N/A   Overcast
9:15 AM 64.4 °F 60.8 °F 88% 29.97 in 10.0 mi SSE 6.9 mph - N/A   Overcast
9:35 AM 64.4 °F 60.8 °F 88% 29.96 in 10.0 mi SSE 6.9 mph - N/A   Overcast
9:55 AM 64.4 °F 60.8 °F 88% 29.97 in 10.0 mi South 8.1 mph - N/A   Overcast
10:15 AM 66.2 °F 60.8 °F 83% 29.97 in 10.0 mi South 9.2 mph - N/A   Overcast
10:35 AM 66.2 °F 60.8 °F 83% 29.97 in 10.0 mi South 6.9 mph - N/A   Overcast
10:55 AM 66.2 °F 60.8 °F 83% 29.97 in 10.0 mi South 5.8 mph - N/A   Overcast
11:15 AM 68.0 °F 60.8 °F 78% 29.97 in 10.0 mi SSE 6.9 mph - N/A   Overcast
11:35 AM 68.0 °F 60.8 °F 78% 29.97 in 10.0 mi South 5.8 mph - N/A   Overcast
11:55 AM 69.8 °F 60.8 °F 73% 29.96 in 10.0 mi SSE 9.2 mph - N/A   Overcast
12:15 PM 69.8 °F 60.8 °F 73% 29.95 in 10.0 mi SSE 8.1 mph - N/A   Mostly Cloudy
12:35 PM 69.8 °F 60.8 °F 73% 29.95 in 10.0 mi South 6.9 mph - N/A   Overcast
12:55 PM 69.8 °F 60.8 °F 73% 29.94 in 10.0 mi SSE 6.9 mph - N/A   Overcast
1:15 PM 69.8 °F 60.8 °F 73% 29.93 in 10.0 mi SSE 12.7 mph 16.1 mph N/A   Overcast
1:35 PM 69.8 °F 60.8 °F 73% 29.91 in 10.0 mi South 6.9 mph - N/A   Overcast
1:55 PM 71.6 °F 60.8 °F 69% 29.91 in 10.0 mi SSE 10.4 mph 16.1 mph N/A   Mostly Cloudy
2:15 PM 71.6 °F 60.8 °F 69% 29.90 in 10.0 mi South 12.7 mph 18.4 mph N/A   Overcast
2:35 PM 71.6 °F 60.8 °F 69% 29.89 in 10.0 mi SSE 8.1 mph 18.4 mph N/A   Overcast
2:55 PM 71.6 °F 60.8 °F 69% 29.88 in 10.0 mi SSE 5.8 mph 16.1 mph N/A   Overcast
3:15 PM 71.6 °F 60.8 °F 69% 29.87 in 10.0 mi South 11.5 mph 17.3 mph N/A   Mostly Cloudy
3:35 PM 71.6 °F 59.0 °F 64% 29.86 in 10.0 mi SSE 10.4 mph 18.4 mph N/A   Overcast
3:55 PM 71.6 °F 60.8 °F 69% 29.86 in 10.0 mi South 8.1 mph 16.1 mph N/A   Overcast
4:15 PM 71.6 °F 60.8 °F 69% 29.85 in 10.0 mi South 5.8 mph - N/A   Overcast
4:35 PM 71.6 °F 60.8 °F 69% 29.84 in 10.0 mi SSE 5.8 mph - N/A   Overcast
4:55 PM 73.4 °F 60.8 °F 65% 29.84 in 10.0 mi SSE 11.5 mph - N/A   Overcast
5:15 PM 73.4 °F 60.8 °F 65% 29.83 in 10.0 mi South 10.4 mph - N/A   Overcast
5:35 PM 73.4 °F 60.8 °F 65% 29.82 in 10.0 mi SE 6.9 mph 17.3 mph N/A   Overcast
5:55 PM 73.4 °F 60.8 °F 65% 29.82 in 10.0 mi SSE 8.1 mph - N/A   Overcast
6:15 PM 73.4 °F 60.8 °F 65% 29.81 in 10.0 mi SSE 8.1 mph - N/A   Overcast
6:35 PM 73.4 °F 60.8 °F 65% 29.81 in 10.0 mi SSE 10.4 mph 16.1 mph N/A   Overcast
6:55 PM 73.4 °F 60.8 °F 65% 29.82 in 10.0 mi SSE 6.9 mph - N/A   Overcast
7:15 PM 73.4 °F 60.8 °F 65% 29.82 in 10.0 mi SSE 4.6 mph - N/A   Overcast
7:35 PM 71.6 °F 60.8 °F 69% 29.82 in 10.0 mi SSE 3.5 mph - N/A   Overcast
7:55 PM 71.6 °F 60.8 °F 69% 29.82 in 10.0 mi SE 3.5 mph - N/A   Overcast
8:15 PM 71.6 °F 60.8 °F 69% 29.82 in 10.0 mi SSE 4.6 mph - N/A   Overcast
8:35 PM 71.6 °F 60.8 °F 69% 29.82 in 10.0 mi SE 5.8 mph - N/A   Overcast
8:55 PM 71.6 °F 59.0 °F 64% 29.83 in 10.0 mi SSE 5.8 mph - N/A   Overcast
9:15 PM 71.6 °F 59.0 °F 64% 29.82 in 10.0 mi SE 5.8 mph - N/A   Overcast
9:35 PM 71.6 °F 59.0 °F 64% 29.83 in 10.0 mi SSE 6.9 mph - N/A   Overcast
9:55 PM 71.6 °F 59.0 °F 64% 29.83 in 10.0 mi SSE 9.2 mph - N/A   Overcast
10:15 PM 71.6 °F 59.0 °F 64% 29.83 in 10.0 mi SSE 10.4 mph - N/A   Overcast
10:35 PM 71.6 °F 57.2 °F 60% 29.83 in 10.0 mi SSE 9.2 mph 18.4 mph N/A   Mostly Cloudy
10:55 PM 71.6 °F 57.2 °F 60% 29.83 in 10.0 mi SSE 6.9 mph 17.3 mph N/A   Scattered Clouds
11:15 PM 69.8 °F 59.0 °F 68% 29.83 in 10.0 mi SSE 11.5 mph 18.4 mph N/A   Clear
11:35 PM 69.8 °F 59.0 °F 68% 29.82 in 10.0 mi SSE 11.5 mph 20.7 mph N/A   Clear
11:55 PM 69.8 °F 59.0 °F 68% 29.82 in 10.0 mi SSE 5.8 mph 16.1 mph N/A   Scattered Clouds